GOES 17

Last updated on Wed Sep 17 2025 00:02:22 GMT+0000 (Coordinated Universal Time)

1 43226U 18022A 25258.63804953 -.00000199 00000+0 00000+0 0 9998 2 43226 0.2268 92.7093 0002698 151.0664 251.2680 1.00271075 27674
UTC large
Height (km)
Speed (km/s)
/
Latitude / Longitude
Inclination (degrees)
Orbital Period (minutes)
Azimuth
Elevation
Range (km)
Doppler Factor

Next 0 passes for location: London (51.5072 / 0.1276)

Sorry there are no passes over London.